Wind_Speed
30 26 23 24 20 19 22 24 17 17 18 21 22 21 18 22 22 23 23 19 6 5 7 5 4 10 14 12 14 16 17 18 14 7 6 8 8 5 6 9 7 7 5 9
33 30 26 25 23 22 25 26 21 20 19 19 23 24 21 23 22 19 20 15 10 6 7 9 9 1 5 4 12 16 14 17 15 10 7 7 8 13 12 8 12 11 7 12
36 34 31 27 26 24 27 24 23 23 22 22 21 23 25 26 28 25 18 16 11 10 10 11 4 3 3 6 13 14 13 13 11 8 7 6 6 9 9 11 12 11 11 4
39 36 34 34 32 29 27 23 23 23 24 26 22 18 24 26 28 28 21 12 13 15 12 11 13 6 2 4 6 6 7 8 10 11 7 6 5 5 10 9 14 14 15 15
41 40 40 40 37 29 28 25 24 23 22 26 25 21 21 26 27 27 24 21 17 20 14 10 12 14 10 9 4 3 5 7 10 12 14 13 17 24 16 11 13 14 14 15
39 40 44 43 34 31 30 27 27 25 23 24 27 25 22 22 25 27 26 26 26 23 23 15 10 13 17 17 15 12 10 9 12 11 11 9 12 15 26 28 18 17 13 16
42 46 45 39 35 34 33 31 30 27 25 24 26 26 23 23 24 29 25 26 27 23 27 24 18 17 21 26 20 18 21 15 14 10 17 14 11 11 20 22 24 20 21 17
44 43 38 37 36 36 36 37 33 29 26 23 23 25 24 23 24 28 24 25 29 31 27 27 23 20 25 23 27 25 23 21 13 15 28 19 21 20 14 18 20 20 23 27
35 33 33 33 33 35 35 35 34 33 29 25 25 26 25 24 26 27 26 27 27 32 32 26 25 25 29 27 31 32 40 32 33 33 33 12 15 20 24 25 22 22 23 25
31 32 34 32 32 33 34 35 36 35 33 31 32 30 26 29 26 28 32 31 31 33 33 23 30 33 33 31 33 36 39 42 43 43 38 34 34 44 37 38 35 40 33 23
33 35 35 32 32 33 33 32 34 35 36 36 36 34 33 33 30 31 34 37 34 40 40 35 37 44 34 33 36 40 41 43 46 48 40 40 44 36 39 45 42 47 48 38
32 33 34 32 30 30 30 32 36 38 39 39 40 39 38 38 37 37 37 40 39 39 43 46 37 43 42 40 40 48 52 54 53 52 52 50 57 52 43 43 50 52 57 55
33 33 30 29 32 33 34 35 37 37 38 38 37 37 38 39 39 40 40 41 43 43 37 42 43 44 49 56 58 58 59 61 63 65 65 72 68 59 54 54 58 56 56 65
32 31 33 34 33 33 34 36 38 39 39 38 37 35 36 37 40 41 38 38 41 43 46 49 55 59 51 58 62 63 65 69 77 77 78 77 76 71 70 66 69 71 68 64
33 35 35 35 34 35 37 39 38 39 38 37 36 36 37 37 39 40 39 37 39 41 47 50 53 58 61 68 60 65 69 74 78 83 87 85 81 78 76 76 77 77 77 78
36 36 37 37 37 37 38 38 37 38 39 40 35 34 34 36 37 37 36 34 35 41 46 52 54 53 61 64 69 70 72 75 78 77 80 81 85 88 85 78 75 74 73 74
33 35 37 38 38 38 36 35 37 37 38 39 37 34 32 32 34 33 32 33 36 39 39 43 54 60 57 59 62 66 70 72 74 75 74 74 76 78 82 88 87 87 86 81
35 36 38 39 39 33 33 35 35 31 37 38 36 35 33 33 35 31 31 37 38 37 37 38 42 45 48 53 58 63 65 68 66 66 73 77 78 79 78 80 86 91 89 88
32 35 35 36 37 31 31 32 32 33 33 37 37 37 37 36 37 35 32 34 36 35 34 38 44 44 47 51 55 60 62 60 66 70 74 73 69 59 56 55 61 65 62 65
33 35 36 39 37 33 32 29 26 28 30 33 35 37 36 36 36 36 35 36 35 33 36 40 44 47 50 54 58 58 58 63 66 67 67 58 50 45 45 41 34 34 36 34
33 34 36 38 37 36 32 31 28 29 33 32 32 32 32 31 32 34 35 35 35 37 41 46 50 52 53 57 55 54 61 61 62 65 55 49 40 40 44 42 40 37 32 31
37 37 37 37 41 40 37 32 30 31 35 30 31 30 30 30 31 33 34 36 40 43 47 50 52 53 55 54 52 59 60 59 62 61 46 38 37 38 41 42 42 45 44 45
35 35 36 42 45 44 40 37 35 31 32 29 29 31 31 30 31 34 37 40 44 47 49 51 53 56 56 51 54 61 59 57 61 57 48 46 40 42 43 45 46 47 48 50
37 37 40 43 45 44 42 40 35 32 31 30 30 30 30 32 36 39 42 45 47 48 50 52 54 56 51 54 58 58 55 58 61 57 49 49 48 46 43 45 50 52 54 55
31 32 35 38 41 40 39 36 32 31 33 33 32 32 34 37 40 43 45 47 48 49 50 53 55 50 54 58 61 57 56 60 60 57 49 47 48 48 47 47 49 50 55 57
29 31 33 34 34 35 34 33 32 31 34 34 33 34 36 38 41 43 44 45 47 49 52 52 49 52 59 61 61 57 59 65 60 56 49 44 48 49 51 49 50 52 52 57
Wind_Direction
252 253 257 259 266 270 261 265 262 263 278 291 297 305 319 331 332 329 335 338 274 208 145 128 135 92 80 75 60 30 40 59 91 99 44 13 354 353 210 220 245 276 303 305
254 253 258 262 264 266 270 272 271 268 276 287 302 305 318 325 320 323 327 331 263 223 184 195 203 204 68 54 28 47 44 40 57 73 55 358 354 326 298 258 233 274 269 290
253 255 260 265 267 267 270 278 280 276 277 282 291 306 316 317 317 318 329 328 252 241 216 210 247 345 41 51 27 45 36 30 21 37 50 38 356 320 310 263 260 255 235 283
254 259 260 262 260 259 265 275 277 276 275 281 288 298 304 306 309 311 321 321 239 235 214 225 241 219 359 84 19 20 10 6 354 346 344 18 24 346 322 314 289 256 258 256
256 257 256 254 258 263 266 269 274 277 277 280 282 282 286 297 302 305 309 308 247 235 228 229 249 268 258 247 197 219 255 276 327 323 320 315 344 348 330 289 291 282 256 271
252 253 252 252 256 262 264 266 271 276 280 277 277 279 283 286 290 289 294 293 289 241 234 239 230 246 256 252 241 250 254 287 344 315 285 289 325 334 320 310 292 283 268 253
250 247 248 252 255 260 263 263 265 273 279 280 282 282 280 281 287 283 286 283 265 262 242 240 239 245 255 257 245 254 266 262 287 299 316 281 272 337 332 309 295 282 287 258
249 251 252 254 258 259 261 263 265 271 275 280 283 284 278 278 278 278 284 282 255 244 239 236 244 245 256 266 271 262 268 266 258 269 294 284 246 281 286 297 310 299 291 281
246 245 248 252 256 258 259 264 266 264 267 271 277 276 278 273 272 275 279 278 265 245 237 254 254 260 261 266 277 281 276 271 274 270 268 260 262 282 263 268 263 284 275 271
246 248 249 251 254 259 261 261 260 260 264 266 268 271 274 270 266 269 277 273 259 242 233 251 270 262 266 263 272 281 284 280 275 271 277 281 268 272 269 272 263 274 275 260
245 248 252 255 259 260 267 269 264 262 261 263 264 266 268 266 262 266 270 266 259 241 231 234 251 256 260 263 268 272 282 282 276 274 275 275 285 264 258 262 264 271 273 263
252 254 256 258 260 264 266 265 263 261 262 262 263 264 262 264 265 268 269 267 261 258 252 238 249 253 258 258 265 268 270 266 275 279 276 281 286 266 251 250 263 265 260 265
249 255 260 260 258 259 261 261 263 264 264 264 263 263 262 260 262 266 267 265 262 258 257 245 251 252 258 263 268 273 280 282 285 290 290 294 291 281 262 256 254 259 259 257
248 253 253 254 259 263 264 265 265 266 268 269 268 264 264 263 263 264 266 264 264 262 259 256 259 261 260 255 261 266 271 275 290 291 290 289 287 286 284 278 267 264 264 261
245 251 256 258 260 262 265 268 271 272 270 268 264 261 257 256 258 262 264 262 261 266 263 258 257 256 258 260 267 273 278 282 284 286 288 288 288 286 283 279 277 274 268 268
248 253 258 262 264 265 265 266 267 268 271 272 270 266 263 260 259 260 265 263 266 266 267 267 266 265 259 261 268 274 278 282 282 284 282 285 288 288 285 281 277 272 266 263
247 251 254 257 257 260 263 263 265 266 267 270 271 266 263 261 261 264 266 258 264 265 268 269 266 267 271 273 275 279 279 281 283 284 287 287 287 286 284 283 277 276 274 267
248 251 254 258 263 266 266 265 266 269 273 271 269 270 266 264 266 263 251 250 260 267 263 267 268 269 272 275 276 278 283 287 289 292 291 292 294 292 290 284 280 274 271 270
251 253 256 260 264 262 264 269 265 267 272 277 279 273 267 263 260 262 261 256 260 258 264 264 261 269 276 281 286 292 294 293 294 295 298 299 295 295 300 306 300 285 273 266
249 256 260 264 267 270 267 264 271 280 280 280 276 275 273 267 263 264 264 263 266 270 278 285 288 289 288 289 294 292 292 299 300 303 304 302 300 303 302 314 327 314 286 275
249 253 258 265 272 275 274 277 281 285 286 283 279 280 280 279 275 274 278 282 284 286 287 287 286 287 291 296 295 296 302 304 305 310 302 300 296 298 308 313 324 331 321 313
247 252 260 269 271 276 280 284 284 283 282 280 275 271 270 270 271 273 276 278 279 281 283 286 289 293 297 297 298 303 305 304 309 312 295 291 293 298 309 308 315 321 320 322
250 258 262 265 270 276 283 286 282 279 279 281 272 267 265 264 267 269 273 276 280 283 287 290 293 297 299 298 303 306 307 306 310 309 291 282 283 294 297 301 308 316 314 317
247 251 258 262 266 272 277 278 277 276 280 279 272 269 269 272 275 279 282 284 286 289 291 293 296 300 299 302 305 307 305 306 309 307 288 288 282 286 294 296 300 306 316 319
248 252 256 260 265 270 271 273 271 278 280 279 279 280 282 283 285 287 288 290 291 291 294 297 299 296 301 304 307 308 304 307 307 305 287 285 286 280 287 294 296 302 311 318
263 265 270 272 270 270 273 274 276 285 282 281 283 283 285 287 288 289 292 292 293 295 297 297 296 299 303 305 309 307 306 308 305 303 290 280 289 284 282 289 292 295 309 318
Height
10953 10956 10958 10959 10961 10962 10961 10960 10964 10964 10962 10961 10961 10962 10962 10960 10958 10954 10952 10950 10948 10947 10946 10945 10943 10941 10941 10941 10935 10937 10937 10934 10931 10929 10931 10931 10934 10938 10941 10942 10942 10941 10941 10943
10948 10950 10952 10955 10956 10958 10957 10957 10960 10961 10960 10960 10957 10957 10958 10956 10954 10954 10950 10949 10946 10946 10944 10943 10942 10942 10942 10940 10940 10938 10936 10936 10935 10933 10931 10932 10932 10933 10934 10937 10938 10938 10939 10941
10941 10944 10948 10950 10952 10954 10952 10955 10956 10956 10956 10957 10958 10955 10953 10950 10947 10947 10949 10947 10944 10943 10941 10942 10947 10945 10943 10941 10944 10943 10939 10937 10935 10935 10934 10934 10934 10934 10934 10934 10935 10936 10937 10939
10934 10939 10942 10943 10943 10946 10948 10951 10951 10952 10952 10952 10955 10956 10950 10947 10944 10942 10946 10947 10943 10938 10938 10941 10948 10945 10943 10943 10944 10942 10941 10938 10935 10935 10933 10931 10931 10932 10934 10933 10934 10934 10935 10936
10929 10932 10934 10933 10936 10942 10944 10945 10946 10945 10948 10947 10949 10952 10952 10946 10941 10940 10940 10940 10938 10936 10937 10939 10940 10940 10941 10941 10942 10942 10939 10935 10933 10932 10932 10934 10932 10931 10931 10932 10933 10932 10933 10934
10922 10923 10922 10925 10932 10936 10937 10940 10940 10940 10942 10943 10942 10946 10947 10945 10941 10937 10935 10935 10933 10934 10934 10935 10936 10936 10934 10935 10936 10938 10936 10936 10934 10931 10931 10932 10932 10928 10929 10929 10929 10931 10932 10931
10912 10911 10914 10922 10926 10929 10931 10933 10934 10935 10937 10937 10937 10939 10941 10940 10937 10932 10934 10932 10928 10928 10929 10931 10932 10932 10930 10930 10931 10933 10932 10933 10934 10931 10929 10929 10929 10927 10926 10925 10925 10924 10927 10926
10901 10905 10912 10915 10919 10922 10924 10925 10928 10929 10930 10932 10932 10932 10933 10932 10931 10927 10928 10926 10923 10922 10924 10924 10925 10924 10921 10923 10925 10927 10926 10926 10927 10928 10926 10923 10923 10923 10923 10921 10920 10917 10917 10919
10896 10901 10905 10908 10912 10914 10917 10919 10921 10921 10924 10925 10926 10926 10926 10924 10921 10920 10920 10918 10915 10913 10917 10919 10918 10916 10912 10915 10914 10916 10918 10920 10919 10918 10921 10924 10920 10920 10918 10916 10916 10915 10912 10910
10892 10895 10897 10902 10905 10907 10908 10910 10911 10914 10916 10918 10918 10919 10919 10914 10915 10913 10911 10910 10907 10907 10907 10908 10906 10909 10906 10907 10908 10909 10909 10909 10909 10908 10910 10912 10914 10911 10910 10908 10908 10905 10906 10903
10885 10887 10890 10895 10898 10899 10900 10902 10903 10905 10906 10906 10908 10909 10909 10907 10907 10906 10903 10900 10899 10898 10897 10896 10897 10897 10898 10898 10899 10899 10899 10899 10900 10900 10900 10902 10903 10902 10899 10897 10897 10896 10896 10898
10879 10881 10884 10888 10891 10893 10893 10892 10892 10893 10895 10896 10896 10897 10899 10898 10898 10898 10896 10893 10891 10890 10893 10895 10892 10888 10888 10889 10890 10887 10884 10883 10884 10885 10885 10885 10886 10886 10884 10886 10884 10883 10886 10887
10871 10874 10879 10881 10882 10882 10883 10882 10882 10884 10885 10885 10886 10887 10887 10888 10888 10887 10888 10887 10884 10883 10885 10887 10887 10883 10881 10880 10878 10876 10872 10869 10869 10867 10865 10861 10864 10865 10868 10864 10865 10866 10868 10870
10864 10866 10868 10871 10873 10875 10875 10874 10873 10874 10876 10877 10877 10878 10877 10876 10877 10877 10878 10880 10877 10877 10879 10878 10877 10877 10876 10873 10868 10866 10864 10859 10856 10852 10851 10850 10848 10844 10841 10842 10844 10845 10848 10851
10856 10857 10859 10862 10866 10866 10865 10864 10864 10864 10865 10866 10866 10867 10866 10866 10866 10868 10868 10870 10870 10870 10869 10868 10867 10867 10865 10864 10862 10860 10857 10849 10843 10836 10825 10825 10826 10827 10826 10824 10820 10820 10823 10825
10847 10850 10852 10854 10856 10857 10856 10855 10856 10855 10855 10854 10856 10858 10858 10859 10860 10860 10861 10862 10862 10860 10857 10857 10857 10855 10854 10853 10851 10848 10844 10838 10833 10825 10819 10815 10803 10791 10790 10795 10794 10794 10795 10798
10842 10844 10845 10845 10846 10847 10849 10848 10847 10848 10848 10847 10847 10849 10850 10850 10852 10854 10855 10855 10852 10851 10850 10848 10846 10844 10844 10843 10839 10834 10829 10822 10816 10810 10803 10791 10785 10780 10774 10760 10755 10757 10756 10763
10833 10834 10835 10835 10838 10841 10840 10840 10839 10840 10839 10838 10839 10841 10842 10843 10843 10844 10844 10844 10845 10845 10841 10839 10838 10836 10835 10832 10827 10822 10814 10805 10798 10791 10781 10774 10765 10756 10744 10736 10724 10722 10725 10727
10824 10826 10827 10828 10828 10832 10833 10832 10833 10832 10830 10829 10830 10829 10829 10830 10830 10831 10834 10836 10836 10833 10831 10831 10829 10828 10824 10819 10812 10804 10796 10789 10783 10773 10761 10753 10744 10734 10726 10714 10700 10689 10694 10697
10816 10817 10819 10819 10820 10824 10824 10825 10826 10824 10822 10822 10819 10817 10816 10818 10821 10823 10823 10823 10822 10821 10818 10814 10812 10810 10807 10802 10796 10788 10780 10773 10763 10753 10742 10732 10725 10718 10711 10702 10690 10678 10673 10673
10809 10810 10811 10811 10813 10814 10815 10816 10816 10815 10814 10813 10811 10809 10808 10808 10807 10807 10807 10807 10806 10805 10804 10802 10800 10797 10793 10786 10778 10772 10764 10754 10744 10734 10723 10717 10712 10707 10700 10692 10683 10676 10671 10669
10802 10803 10805 10806 10805 10805 10807 10808 10808 10808 10807 10807 10806 10804 10802 10801 10801 10800 10799 10798 10796 10795 10793 10788 10783 10780 10777 10771 10763 10756 10748 10738 10729 10719 10711 10706 10702 10696 10691 10684 10676 10670 10665 10660
10797 10800 10800 10799 10798 10797 10798 10800 10800 10801 10801 10800 10798 10796 10795 10796 10795 10794 10792 10791 10788 10784 10781 10775 10769 10764 10759 10752 10747 10738 10731 10723 10714 10705 10698 10694 10689 10684 10679 10674 10668 10661 10655 10649
10792 10793 10792 10791 10790 10791 10792 10791 10791 10793 10792 10791 10789 10788 10788 10787 10786 10784 10781 10778 10775 10771 10766 10761 10757 10750 10743 10738 10732 10725 10716 10706 10697 10689 10682 10678 10675 10670 10666 10661 10655 10650 10641 10634
10783 10784 10784 10784 10784 10785 10784 10782 10782 10783 10782 10780 10779 10779 10778 10776 10774 10771 10768 10764 10761 10757 10752 10747 10741 10735 10730 10723 10717 10708 10699 10691 10683 10674 10668 10663 10659 10656 10652 10648 10643 10637 10630 10619
10776 10776 10776 10776 10777 10776 10775 10773 10773 10774 10771 10770 10770 10769 10768 10766 10763 10759 10756 10751 10747 10743 10738 10733 10727 10721 10716 10708 10701 10693 10683 10674 10667 10657 10651 10648 10644 10641 10638 10635 10628 10623 10617 10605